Weather History for Charlottetown, PE

Change the Weather History Date:

Tuesday, April 30, 2013

  Actual Average Record
Temperature  
Mean Temperature 48 °F -  
Max Temperature 57 °F 57 °F 75 °F (2004)
Min Temperature 38 °F 39 °F 26 °F (2001)
Degree Days  
Heating Degree Days 18    
Moisture  
Dew Point 43 °F    
Average Humidity 87    
Maximum Humidity 100    
Minimum Humidity 67    
Precipitation  
Precipitation 0.00 in 0.13 in - ()
Sea Level Pressure  
Sea Level Pressure 30.38 in    
Wind  
Wind Speed 2 mph ()    
Max Wind Speed 12 mph    
Max Gust Speed -    
Visibility 14.4 miles    
Events Fog    
Averages and records for this station are not official NWS values.
T = Trace of Precipitation, MM = Missing Value Source: Averaged Metar Reports

Daily Weather History Graph

Daily Weather History Graph

Search for Another Location

Airport:

Trip Planner

Search our weather history database for the weather conditions in past years. The results will help you decide how hot, cold, wet, or windy it might be!

Date:

Astronomy

Apr. 30, 2013 Rise Set
Actual Time 6:00 AM ADT 8:20 PM ADT
Civil Twilight 5:26 AM ADT 8:53 PM ADT
Nautical Twilight 4:45 AM ADT 9:35 PM ADT
Astronomical Twilight 3:58 AM ADT 10:22 PM ADT
Moon 12:43 AM ADT (4/30) 10:20 AM ADT (4/30)
Length of Visible Light 15h 26m
Length of Day
14h 20m
Waning Gibbous, 70% of the Moon is Illuminated
Apr 30
Waning Gibbous
May 2
Last Quarter
May 9
New
May 18
First Quarter
May 25
Full

Hourly Weather History & Observations

Time (ADT) Temp. Windchill Dew Point Humidity Pressure Visibility Wind Dir Wind Speed Gust Speed Precip Events Conditions
12:00 AM 39.2 °F - 39.2 °F 100% 30.32 in 15.0 mi Calm Calm - N/A   Overcast
1:00 AM 39.2 °F - 39.2 °F 100% 30.33 in 15.0 mi Calm Calm - N/A   Overcast
2:00 AM 41.0 °F - 39.2 °F 93% 30.33 in 15.0 mi Calm Calm - N/A   Overcast
3:00 AM 41 °F - 40 °F 94% 30.33 in 15 mi Calm Calm - -   Overcast
3:00 AM 41.0 °F - 39.2 °F 93% 30.33 in 15.0 mi Calm Calm - N/A   Overcast
4:00 AM 41.0 °F - 39.2 °F 93% 30.34 in 15.0 mi Calm Calm - N/A   Overcast
5:00 AM 41.0 °F - 41.0 °F 100% 30.35 in 15.0 mi Calm Calm - N/A   Mostly Cloudy
6:00 AM 41.0 °F 39.0 °F 39.2 °F 93% 30.36 in 15.0 mi North 3.5 mph - N/A   Mostly Cloudy
8:00 AM 42.8 °F - 41.0 °F 93% 30.38 in 12.0 mi Calm Calm - N/A Fog Scattered Clouds
8:08 AM 44.6 °F - 42.8 °F 93% 30.39 in 12.0 mi NNE 2.3 mph - N/A Fog Mostly Cloudy
9:00 AM 46 °F - 43 °F 86% 30.40 in 12 mi Calm Calm - - Fog Light Fog
9:00 AM 46.4 °F - 42.8 °F 87% 30.40 in 12.0 mi Calm Calm - N/A Fog Mostly Cloudy
9:15 AM 46.4 °F - 44.6 °F 93% 30.40 in 12.0 mi Calm Calm - N/A Fog Mostly Cloudy
10:00 AM 50.0 °F - 46.4 °F 87% 30.40 in 12.0 mi Calm Calm - N/A   Mostly Cloudy
11:00 AM 50.0 °F - 44.6 °F 82% 30.41 in 12.0 mi ESE 3.5 mph - N/A   Mostly Cloudy
12:00 PM 50.0 °F - 46.4 °F 87% 30.40 in 15.0 mi East 6.9 mph - N/A   Mostly Cloudy
1:00 PM 53.6 °F - 46.4 °F 77% 30.40 in 15.0 mi East 4.6 mph - N/A   Mostly Cloudy
2:00 PM 55.4 °F - 46.4 °F 72% 30.38 in 15.0 mi ESE 4.6 mph - N/A   Mostly Cloudy
3:00 PM 56 °F - 48 °F 67% 30.38 in 15 mi East 4.6 mph - -   Mostly Cloudy
3:00 PM 57.2 °F - 48.2 °F 72% 30.38 in 15.0 mi ENE 4.6 mph - N/A   Mostly Cloudy
4:00 PM 55.4 °F - 48.2 °F 77% 30.38 in 15.0 mi North 11.5 mph - N/A   Mostly Cloudy
5:00 PM 55.4 °F - 48.2 °F 77% 30.38 in 15.0 mi NNE 9.2 mph - N/A   Mostly Cloudy
6:00 PM 55.4 °F - 48.2 °F 77% 30.37 in 15.0 mi East 9.2 mph - N/A   Mostly Cloudy
7:00 PM 55.4 °F - 46.4 °F 72% 30.38 in 20.0 mi NNE 5.8 mph - N/A   Mostly Cloudy
8:00 PM 50.0 °F - 46.4 °F 87% 30.40 in 15.0 mi NNE 5.8 mph - N/A   Mostly Cloudy
9:00 PM 43 °F - 41 °F 89% 30.42 in 15 mi NNE 6.9 mph - -   Scattered Clouds
9:00 PM 42.8 °F 38.6 °F 41.0 °F 93% 30.42 in 15.0 mi NNE 6.9 mph - N/A   Scattered Clouds
10:00 PM 41.0 °F 36.4 °F 41.0 °F 100% 30.43 in 15.0 mi NNE 6.9 mph - N/A   Scattered Clouds
11:00 PM 41.0 °F - 39.2 °F 93% 30.43 in 15.0 mi North 2.3 mph - N/A   Partly Cloudy